Radiation Dose at Monitoring Post of Fukushima Daini Nuclear Power Station
Date,Time,MP-1(microSv/h),MP-2(microSv/h),MP-3(microSv/h),MP-4(microSv/h),MP-5(microSv/h),MP-6(microSv/h),MP-7(microSv/h),Wind Direction,Wind Velocity(m/s),Rain
2014/07/21,00:00,0.6,0.4,0.7,0.6,0.6,0.3,0.2,north,4.7,Yes
2014/07/21,00:10,0.6,0.4,0.7,0.6,0.6,0.3,0.2,north-northwest,5.6,Yes
2014/07/21,00:20,0.6,0.4,0.7,0.6,0.6,0.3,0.2,north,4.7,Yes
2014/07/21,00:30,0.6,0.4,0.7,0.6,0.6,0.3,0.2,north,4.5,Yes
2014/07/21,00:40,0.6,0.4,0.7,0.6,0.6,0.3,0.2,north,5.3,Yes
2014/07/21,00:50,0.6,0.4,0.7,0.6,0.6,0.3,0.2,north,4.6,Yes
2014/07/21,01:00,0.6,0.4,0.7,0.6,0.6,0.3,0.2,north,5.4,Yes
2014/07/21,01:10,0.6,0.4,0.7,0.6,0.6,0.3,0.2,north,5.0,Yes
2014/07/21,01:20,0.6,0.4,0.7,0.6,0.6,0.3,0.2,north,6.3,Yes
2014/07/21,01:30,0.6,0.4,0.7,0.6,0.6,0.3,0.2,north,5.4,No
2014/07/21,01:40,0.6,0.4,0.7,0.6,0.6,0.3,0.2,north-northeast,7.6,No
2014/07/21,01:50,0.6,0.4,0.7,0.6,0.6,0.3,0.2,north,7.6,Yes
2014/07/21,02:00,0.6,0.4,0.7,0.6,0.6,0.3,0.2,north,6.2,Yes
2014/07/21,02:10,0.6,0.4,0.7,0.6,0.6,0.3,0.2,north,6.2,Yes
2014/07/21,02:20,0.6,0.4,0.7,0.6,0.6,0.3,0.2,north-northeast,7.0,Yes
2014/07/21,02:30,0.6,0.4,0.7,0.6,0.6,0.3,0.2,north,7.6,Yes
2014/07/21,02:40,0.6,0.4,0.7,0.6,0.6,0.3,0.2,north,8.4,Yes
2014/07/21,02:50,0.6,0.4,0.7,0.6,0.6,0.3,0.2,north,7.5,Yes
2014/07/21,03:00,0.6,0.4,0.7,0.6,0.6,0.3,0.2,north,7.3,Yes
2014/07/21,03:10,0.6,0.4,0.7,0.6,0.6,0.3,0.2,north-northeast,7.8,Yes
2014/07/21,03:20,0.6,0.4,0.7,0.6,0.6,0.3,0.2,north,7.6,Yes
2014/07/21,03:30,0.6,0.4,0.7,0.6,0.6,0.3,0.2,north,7.3,Yes
2014/07/21,03:40,0.6,0.4,0.7,0.6,0.6,0.3,0.2,north,7.5,No
2014/07/21,03:50,0.6,0.4,0.7,0.6,0.6,0.3,0.2,north,7.0,No
2014/07/21,04:00,0.6,0.4,0.7,0.6,0.6,0.3,0.2,north,7.3,No
2014/07/21,04:10,0.6,0.4,0.7,0.6,0.6,0.3,0.2,north,6.8,No
2014/07/21,04:20,0.6,0.4,0.7,0.6,0.6,0.3,0.2,north,5.8,No
2014/07/21,04:30,0.6,0.4,0.7,0.6,0.6,0.3,0.2,north,6.4,Yes
2014/07/21,04:40,0.6,0.4,0.7,0.6,0.6,0.3,0.2,north,6.3,Yes
2014/07/21,04:50,0.6,0.4,0.7,0.6,0.6,0.3,0.2,north,5.9,No
2014/07/21,05:00,0.6,0.4,0.7,0.6,0.6,0.3,0.2,north,6.0,No
2014/07/21,05:10,0.6,0.4,0.7,0.6,0.6,0.3,0.2,north-northwest,6.2,No
2014/07/21,05:20,0.6,0.4,0.7,0.6,0.6,0.3,0.2,north,5.6,No
2014/07/21,05:30,0.6,0.4,0.7,0.6,0.6,0.3,0.2,north-northwest,6.1,No
2014/07/21,05:40,0.6,0.4,0.7,0.6,0.6,0.3,0.2,north-northwest,5.8,No
2014/07/21,05:50,0.6,0.4,0.7,0.6,0.6,0.3,0.2,north-northwest,5.6,No
2014/07/21,06:00,0.6,0.4,0.7,0.6,0.6,0.3,0.2,north-northwest,5.1,No
2014/07/21,06:10,0.6,0.4,0.7,0.6,0.6,0.3,0.2,north-northwest,5.6,No
2014/07/21,06:20,0.6,0.4,0.7,0.6,0.6,0.3,0.2,north-northwest,4.8,No
2014/07/21,06:30,0.6,0.4,0.7,0.6,0.6,0.3,0.2,north-northwest,5.3,No
2014/07/21,06:40,0.6,0.4,0.7,0.6,0.6,0.3,0.2,north-northwest,4.7,No
2014/07/21,06:50,0.6,0.4,0.7,0.6,0.6,0.3,0.2,north-northwest,5.0,No
2014/07/21,07:00,0.6,0.4,0.7,0.6,0.6,0.3,0.2,north,5.5,No
2014/07/21,07:10,0.6,0.4,0.7,0.6,0.6,0.3,0.2,north,5.0,No
2014/07/21,07:20,0.6,0.4,0.7,0.6,0.6,0.3,0.2,north-northwest,5.8,No
2014/07/21,07:30,0.6,0.4,0.7,0.6,0.6,0.3,0.2,north-northwest,5.2,No
2014/07/21,07:40,0.6,0.4,0.7,0.6,0.6,0.3,0.2,north,4.8,No
2014/07/21,07:50,0.6,0.4,0.7,0.6,0.6,0.3,0.2,north,5.1,No
2014/07/21,08:00,0.6,0.4,0.7,0.6,0.6,0.3,0.2,north,4.1,No
2014/07/21,08:10,0.6,0.4,0.7,0.6,0.6,0.3,0.2,north,4.4,No
2014/07/21,08:20,0.6,0.4,0.7,0.6,0.6,0.3,0.2,north,3.3,No
2014/07/21,08:30,0.6,0.4,0.7,0.6,0.6,0.3,0.2,north-northeast,4.4,No
2014/07/21,08:40,0.6,0.4,0.7,0.6,0.6,0.3,0.2,north,6.8,No
2014/07/21,08:50,0.6,0.4,0.7,0.6,0.6,0.3,0.2,north-northeast,6.9,No
2014/07/21,09:00,0.6,0.4,0.7,0.6,0.6,0.3,0.2,north-northeast,5.6,No
2014/07/21,09:10,0.6,0.4,0.7,0.6,0.6,0.3,0.2,north,4.8,No
2014/07/21,09:20,0.6,0.4,0.7,0.6,0.6,0.3,0.2,north-northeast,4.5,No
2014/07/21,09:30,0.6,0.4,0.7,0.6,0.6,0.3,0.2,north,5.2,No
2014/07/21,09:40,0.6,0.4,0.7,0.6,0.6,0.3,0.2,north,4.7,No
2014/07/21,09:50,0.6,0.4,0.7,0.6,0.6,0.3,0.2,north-northeast,5.7,No
2014/07/21,10:00,0.6,0.5,0.7,0.6,0.6,0.3,0.2,north-northeast,7.1,No
2014/07/21,10:10,0.6,0.4,0.7,0.6,0.6,0.3,0.2,northeast,5.0,No
2014/07/21,10:20,0.6,0.4,0.7,0.6,0.6,0.3,0.2,north-northeast,5.6,No
2014/07/21,10:30,0.7,0.4,0.7,0.6,0.6,0.3,0.2,north-northeast,6.2,No
2014/07/21,10:40,0.6,0.4,0.7,0.6,0.6,0.3,0.2,north,6.4,No
2014/07/21,10:50,0.7,0.4,0.7,0.6,0.6,0.3,0.2,north-northeast,6.6,No
2014/07/21,11:00,0.7,0.4,0.7,0.6,0.6,0.3,0.2,north-northeast,6.7,No
2014/07/21,11:10,0.7,0.5,0.7,0.6,0.6,0.3,0.2,northeast,5.5,No
2014/07/21,11:20,0.7,0.5,0.7,0.6,0.6,0.3,0.2,northeast,4.9,No
2014/07/21,11:30,0.7,0.5,0.7,0.6,0.6,0.3,0.2,northeast,6.6,No
2014/07/21,11:40,0.7,0.4,0.7,0.6,0.6,0.3,0.2,northeast,5.0,No
2014/07/21,11:50,0.7,0.5,0.7,0.6,0.6,0.3,0.2,northeast,5.3,No
2014/07/21,12:00,0.6,0.5,0.7,0.6,0.6,0.3,0.2,north-northeast,4.7,No
2014/07/21,12:10,0.7,0.4,0.7,0.6,0.6,0.3,0.2,northeast,5.3,No
2014/07/21,12:20,0.7,0.5,0.7,0.6,0.6,0.3,0.2,northeast,5.6,No
2014/07/21,12:30,0.7,0.5,0.7,0.6,0.6,0.3,0.2,northeast,5.3,No
2014/07/21,12:40,0.7,0.5,0.7,0.6,0.6,0.3,0.2,north-northeast,4.4,No
2014/07/21,12:50,0.7,0.5,0.7,0.6,0.6,0.3,0.2,northeast,4.5,No
2014/07/21,13:00,0.7,0.5,0.7,0.6,0.6,0.3,0.2,northeast,2.7,No
2014/07/21,13:10,0.7,0.5,0.7,0.6,0.6,0.3,0.2,north-northeast,4.2,No
2014/07/21,13:20,0.7,0.5,0.7,0.6,0.6,0.3,0.2,northeast,2.7,No
2014/07/21,13:30,0.7,0.5,0.7,0.6,0.6,0.3,0.2,northeast,1.7,No
2014/07/21,13:40,0.7,0.5,0.7,0.6,0.6,0.3,0.2,east-northeast,3.3,No
2014/07/21,13:50,0.7,0.5,0.7,0.6,0.6,0.3,0.2,northeast,2.0,No
2014/07/21,14:00,0.7,0.5,0.7,0.6,0.6,0.3,0.2,east-northeast,2.2,No
2014/07/21,14:10,0.7,0.5,0.7,0.6,0.6,0.3,0.2,east-northeast,2.5,No
2014/07/21,14:20,0.7,0.5,0.7,0.6,0.6,0.3,0.2,east,1.9,No
2014/07/21,14:30,0.7,0.5,0.7,0.6,0.6,0.3,0.2,east-southeast,1.6,No
2014/07/21,14:40,0.7,0.5,0.7,0.6,0.6,0.3,0.2,east-northeast,1.4,No
2014/07/21,14:50,0.7,0.5,0.7,0.6,0.6,0.3,0.2,east-northeast,1.2,No
2014/07/21,15:00,0.7,0.5,0.7,0.6,0.6,0.3,0.2,east-northeast,1.4,No
2014/07/21,15:10,0.7,0.5,0.7,0.6,0.6,0.3,0.2,north-northeast,1.0,No
2014/07/21,15:20,0.7,0.5,0.7,0.6,0.6,0.3,0.2,northeast,1.5,No
2014/07/21,15:30,0.6,0.5,0.7,0.6,0.6,0.3,0.2,east-northeast,1.0,No
2014/07/21,15:40,0.7,0.5,0.7,0.6,0.6,0.3,0.2,southeast,0.8,No
2014/07/21,15:50,0.7,0.5,0.7,0.6,0.6,0.3,0.2,-,CALM,No
2014/07/21,16:00,0.7,0.5,0.7,0.6,0.6,0.3,0.2,south-southeast,1.3,No
2014/07/21,16:10,0.7,0.5,0.7,0.6,0.6,0.3,0.2,east-southeast,1.0,No
2014/07/21,16:20,0.6,0.5,0.7,0.6,0.6,0.3,0.2,south-southeast,1.0,No
2014/07/21,16:30,0.7,0.5,0.7,0.6,0.6,0.3,0.2,south-southeast,0.7,No
2014/07/21,16:40,0.7,0.5,0.7,0.6,0.6,0.3,0.2,south-southeast,1.0,No
2014/07/21,16:50,0.7,0.5,0.7,0.6,0.6,0.3,0.2,-,CALM,No
2014/07/21,17:00,0.7,0.5,0.7,0.6,0.6,0.3,0.2,south-southeast,0.7,No
2014/07/21,17:10,0.7,0.5,0.7,0.6,0.6,0.3,0.2,-,CALM,No
2014/07/21,17:20,0.7,0.5,0.7,0.6,0.6,0.3,0.2,-,CALM,No
2014/07/21,17:30,0.7,0.5,0.7,0.6,0.6,0.3,0.2,south-southwest,0.9,No
2014/07/21,17:40,0.7,0.5,0.7,0.6,0.6,0.3,0.2,south-southwest,1.0,No
2014/07/21,17:50,0.7,0.5,0.7,0.6,0.6,0.3,0.2,south-southwest,1.4,No
2014/07/21,18:00,0.7,0.5,0.7,0.6,0.6,0.3,0.2,south-southwest,1.3,No
2014/07/21,18:10,0.6,0.5,0.7,0.6,0.6,0.3,0.2,south-southwest,1.7,No
2014/07/21,18:20,0.6,0.5,0.7,0.6,0.6,0.3,0.2,south-southwest,1.8,No
2014/07/21,18:30,0.6,0.4,0.7,0.6,0.6,0.3,0.2,south-southwest,2.1,No
2014/07/21,18:40,0.6,0.5,0.7,0.6,0.6,0.3,0.2,south-southwest,2.2,No
2014/07/21,18:50,0.7,0.5,0.7,0.6,0.6,0.3,0.2,south-southwest,1.8,No
2014/07/21,19:00,0.7,0.5,0.7,0.6,0.6,0.3,0.2,south,1.7,No
2014/07/21,19:10,0.7,0.5,0.7,0.6,0.6,0.3,0.2,south-southwest,1.9,No
2014/07/21,19:20,0.7,0.5,0.7,0.6,0.6,0.3,0.2,south-southwest,2.1,No
2014/07/21,19:30,0.6,0.5,0.7,0.6,0.6,0.3,0.2,south-southwest,1.3,No
2014/07/21,19:40,0.6,0.4,0.7,0.6,0.6,0.3,0.2,south,1.3,No
2014/07/21,19:50,0.6,0.4,0.7,0.6,0.6,0.3,0.2,south-southwest,0.9,No
2014/07/21,20:00,0.6,0.5,0.7,0.6,0.6,0.3,0.2,south-southwest,0.9,No
2014/07/21,20:10,0.6,0.5,0.7,0.6,0.6,0.3,0.2,south-southwest,1.9,No
2014/07/21,20:20,0.6,0.5,0.7,0.6,0.6,0.3,0.2,south-southwest,1.4,No
2014/07/21,20:30,0.6,0.4,0.7,0.6,0.6,0.3,0.2,south-southwest,1.9,No
2014/07/21,20:40,0.6,0.4,0.7,0.6,0.6,0.3,0.2,south-southwest,1.0,No
2014/07/21,20:50,0.6,0.4,0.7,0.6,0.6,0.3,0.2,south,1.3,No
2014/07/21,21:00,0.6,0.5,0.7,0.6,0.6,0.3,0.2,south-southwest,1.0,No
2014/07/21,21:10,0.6,0.4,0.7,0.6,0.6,0.3,0.2,southwest,1.5,No
2014/07/21,21:20,0.6,0.4,0.7,0.6,0.6,0.3,0.2,southwest,1.4,No
2014/07/21,21:30,0.6,0.4,0.7,0.6,0.6,0.3,0.2,southwest,3.2,No
2014/07/21,21:40,0.6,0.4,0.7,0.6,0.6,0.3,0.2,south-southwest,3.3,No
2014/07/21,21:50,0.6,0.5,0.7,0.6,0.6,0.3,0.2,south,2.1,No
2014/07/21,22:00,0.6,0.4,0.7,0.6,0.6,0.3,0.2,south,1.9,No
2014/07/21,22:10,0.6,0.5,0.7,0.6,0.6,0.3,0.2,south-southwest,2.5,No
2014/07/21,22:20,0.6,0.4,0.7,0.6,0.6,0.3,0.2,south,3.1,No
2014/07/21,22:30,0.6,0.4,0.7,0.6,0.6,0.3,0.2,south,3.2,No
2014/07/21,22:40,0.6,0.4,0.7,0.6,0.6,0.3,0.2,south,3.0,No
2014/07/21,22:50,0.6,0.4,0.7,0.6,0.6,0.3,0.2,south,3.6,No
2014/07/21,23:00,0.6,0.5,0.7,0.6,0.6,0.3,0.2,south,3.1,No
2014/07/21,23:10,0.6,0.5,0.7,0.6,0.6,0.3,0.2,south-southeast,2.9,No
2014/07/21,23:20,0.6,0.4,0.7,0.6,0.6,0.3,0.2,south,3.3,No
2014/07/21,23:30,0.6,0.4,0.7,0.6,0.6,0.3,0.2,south,3.9,No
2014/07/21,23:40,0.6,0.4,0.7,0.6,0.6,0.3,0.2,south,3.5,No
2014/07/21,23:50,0.6,0.4,0.7,0.6,0.6,0.3,0.2,south,3.0,No
